Location: Igri�s
(42.2144°N, 0.4320°W)
Time: 10:20:33
(UTC+00:00)

CENTAUR R/B - Pass Details

Date: 13 August 2020
Orbit: 754 x 1434 km, 63.5° (Epoch: 17 September)

Event Time Altitude Azimuth Distance (km) Brightness Sun altitude
Rises 20:35:54 0° 201° (SSW) 3,335 5.1 -15.6°
Reaches altitude 10° 20:38:12 10° 198° (SSW) 2,470 4.4 -16.0°
Maximum altitude 20:43:49 61° 119° (ESE) 1,064 2.4 -16.8°
Drops below altitude 10° 20:50:28 10° 41° (NE) 2,913 5.0 -17.7°
Sets 20:53:23 0° 38° (NE) 3,983 5.7 -18.1°
